McAllen, TX

10:49 AM CDT on May 24, 2017 (GMT -0500)
McAllen Miller International

Weather History for KMFE - June, 2013

Change the Weather History Date:

Wednesday, June 19, 2013

  Actual Average Record
Temperature  
Mean Temperature 88 °F 86 °F  
Max Temperature 98 °F 97 °F 103 °F (2008)
Min Temperature 77 °F 76 °F 68 °F (1972)
Degree Days  
Heating Degree Days 0 0  
Month to date heating degree days 0 0  
Since 1 June heating degree days 0 0  
Since 1 July heating degree days 318 579  
Cooling Degree Days 23 21  
Month to date cooling degree days 417 393  
Year to date cooling degree days 1713 1648  
Since 1 June cooling degree days 417 393  
Growing Degree Days 37 (Base 50)    
Moisture  
Dew Point 72 °F    
Average Humidity 65    
Maximum Humidity 91    
Minimum Humidity 38    
Precipitation  
Precipitation 0.00 in 0.09 in 3.89 in (1985)
Month to date precipitation 0.88 1.58  
Year to date precipitation 4.30 8.36  
Sea Level Pressure  
Sea Level Pressure 29.92 in    
Wind  
Wind Speed 13 mph (SE)    
Max Wind Speed 25 mph    
Max Gust Speed 30 mph    
Visibility 10 miles    
Events      
T = Trace of Precipitation, MM = Missing Value Source: NWS Daily Summary

Daily Weather History Graph

Daily Weather History Graph

Search for Another Location

Airport or City:

Trip Planner

Search our weather history database for the weather conditions in past years. The results will help you decide how hot, cold, wet, or windy it might be!

Date:

Astronomy

Jun. 19, 2013 Rise Set
Actual Time 6:41 AM CDT 8:27 PM CDT
Civil Twilight 6:14 AM CDT 8:53 PM CDT
Nautical Twilight 5:43 AM CDT 9:25 PM CDT
Astronomical Twilight 5:10 AM CDT 9:58 PM CDT
Moon 4:36 PM CDT (6/19) 3:08 AM CDT (6/19)
Length of Visible Light 14h 39m
Length of Day
13h 46m
Waxing Gibbous, 80% of the Moon is Illuminated
Jun 19
Waxing Gibbous
Jun 23
Full
Jun 29
Last Quarter
Jul 8
New
Jul 15
First Quarter

Hourly Weather History & Observations

Time (CDT) Temp. Heat Index Dew Point Humidity Pressure Visibility Wind Dir Wind Speed Gust Speed Precip Events Conditions
12:53 AM 80.1 °F 85.1 °F 75.0 °F 85% 29.93 in 10.0 mi SSE 11.5 mph - N/A   Clear
1:53 AM 79.0 °F - 75.0 °F 88% 29.92 in 10.0 mi SE 11.5 mph - N/A   Scattered Clouds
2:53 AM 79.0 °F - 75.0 °F 88% 29.91 in 10.0 mi SSE 9.2 mph - N/A   Scattered Clouds
3:20 AM 78.8 °F - 75.2 °F 89% 29.91 in 10.0 mi SSE 5.8 mph - N/A   Mostly Cloudy
3:30 AM 78.8 °F - 75.2 °F 89% 29.90 in 10.0 mi SSE 5.8 mph - N/A   Scattered Clouds
3:53 AM 79.0 °F - 75.0 °F 88% 29.90 in 10.0 mi SE 6.9 mph - N/A   Clear
4:53 AM 78.1 °F - 75.0 °F 90% 29.90 in 10.0 mi SE 4.6 mph - N/A   Partly Cloudy
5:53 AM 78.1 °F - 73.9 °F 87% 29.91 in 10.0 mi SE 6.9 mph - N/A   Mostly Cloudy
6:30 AM 78.8 °F - 73.4 °F 83% 29.91 in 10.0 mi SE 4.6 mph - N/A   Scattered Clouds
6:53 AM 77.0 °F - 73.9 °F 90% 29.91 in 10.0 mi SE 5.8 mph - N/A   Clear
7:53 AM 79.0 °F - 75.0 °F 88% 29.93 in 10.0 mi ESE 8.1 mph - N/A   Clear
8:53 AM 82.0 °F 88.6 °F 75.0 °F 79% 29.94 in 10.0 mi SSE 11.5 mph - N/A   Scattered Clouds
9:53 AM 87.1 °F 94.5 °F 73.0 °F 63% 29.94 in 10.0 mi SSE 16.1 mph 23.0 mph N/A   Partly Cloudy
10:53 AM 88.0 °F 94.7 °F 72.0 °F 59% 29.94 in 10.0 mi SSE 13.8 mph 20.7 mph N/A   Scattered Clouds
11:53 AM 91.9 °F 98.4 °F 71.1 °F 50% 29.93 in 10.0 mi SE 15.0 mph - N/A   Clear
12:53 PM 96.1 °F 101.6 °F 69.1 °F 41% 29.91 in 10.0 mi SE 18.4 mph 24.2 mph N/A   Partly Cloudy
1:53 PM 96.1 °F 99.9 °F 66.9 °F 38% 29.90 in 10.0 mi SSE 17.3 mph 25.3 mph N/A   Partly Cloudy
2:53 PM 97.0 °F 101.0 °F 66.9 °F 37% 29.88 in 10.0 mi SE 15.0 mph 25.3 mph N/A   Clear
3:53 PM 95.0 °F 99.5 °F 68.0 °F 41% 29.87 in 10.0 mi SE 17.3 mph 27.6 mph N/A   Mostly Cloudy
4:53 PM 96.1 °F 101.0 °F 68.0 °F 40% 29.87 in 10.0 mi SE 17.3 mph 27.6 mph N/A   Partly Cloudy
5:53 PM 93.9 °F 97.5 °F 66.9 °F 41% 29.88 in 10.0 mi SE 16.1 mph 25.3 mph N/A   Partly Cloudy
6:53 PM 91.9 °F 95.4 °F 66.9 °F 44% 29.88 in 10.0 mi SE 21.9 mph 28.8 mph N/A   Clear
7:53 PM 89.1 °F 91.0 °F 64.9 °F 45% 29.91 in 10.0 mi SE 17.3 mph 26.5 mph N/A   Clear
8:53 PM 84.9 °F 89.4 °F 70.0 °F 61% 29.93 in 10.0 mi SE 17.3 mph - N/A   Clear
9:53 PM 84.0 °F 89.6 °F 72.0 °F 67% 29.95 in 10.0 mi SE 16.1 mph - N/A   Clear
10:53 PM 82.0 °F 86.7 °F 72.0 °F 71% 29.96 in 10.0 mi SE 16.1 mph - N/A   Clear
11:53 PM 81.0 °F 85.2 °F 72.0 °F 74% 29.99 in 10.0 mi SE 12.7 mph - N/A   Clear